Wind_Speed
3 6 15 25 31 50 60 58 58 61 55 56 59 60 53 52 54 57 56 58 60 61 61 62 62 60 64 61 63 66 65 67 67 73 73 75 74 75 77 75 75 78 77
8 7 23 34 39 53 56 54 53 56 57 55 57 55 54 53 54 58 60 60 59 63 66 67 67 64 63 66 67 66 73 75 76 74 75 80 79 80 79 80 81 82 88
8 13 16 37 41 46 52 50 55 54 53 58 53 53 55 58 57 57 61 64 67 71 68 68 66 65 67 65 69 75 74 77 79 78 78 81 82 82 83 84 85 87 93
5 11 24 28 37 44 46 50 57 53 48 48 53 52 57 60 57 61 62 66 69 65 66 69 65 64 68 74 75 78 78 85 84 80 81 84 85 85 85 90 95 100 105
40 24 9 23 32 37 41 43 47 48 49 59 59 61 61 58 60 63 66 68 68 69 68 67 71 75 81 81 82 83 86 87 86 87 88 88 90 94 98 103 106 103 98
56 46 33 22 13 12 26 37 46 49 46 50 56 59 63 64 66 69 71 73 74 76 77 79 80 80 76 87 85 87 87 90 93 95 97 98 103 103 106 95 83 74 71
53 56 50 45 31 30 16 5 7 20 30 39 44 50 56 61 63 65 66 70 71 74 75 76 82 84 87 88 87 91 98 96 91 92 88 77 66 66 65 64 63 62 60
52 52 52 50 53 48 46 31 17 14 8 9 19 30 46 59 64 67 70 72 68 71 75 80 87 89 91 92 93 83 70 56 49 47 45 45 50 55 57 56 49 36 26
43 46 47 50 50 51 52 48 43 36 29 21 21 18 13 6 7 14 18 24 32 36 37 37 36 35 36 36 37 37 37 34 31 32 31 29 26 25 22 19 16 13 12
42 42 44 45 46 50 50 51 48 47 45 41 42 35 36 29 28 23 19 16 13 14 17 21 24 27 29 30 32 35 36 36 33 30 26 25 24 21 17 14 11 11 14
38 41 42 43 44 44 45 46 49 49 50 51 47 50 48 46 43 40 31 32 32 29 29 29 28 29 31 33 35 36 35 35 33 29 27 25 24 21 19 19 18 19 20
34 36 37 40 40 42 44 44 45 47 48 50 54 52 55 54 52 54 51 52 51 40 41 38 39 40 37 35 35 36 37 36 34 32 30 27 26 24 23 23 23 23 24
29 32 36 37 38 39 40 43 44 43 44 47 48 48 53 55 57 55 54 51 53 54 54 53 51 46 44 41 40 39 38 34 33 33 31 30 29 29 26 25 26 28 29
27 31 33 34 35 35 38 39 41 41 41 44 45 47 49 52 55 57 57 59 59 56 56 59 60 58 52 49 41 38 41 40 35 34 35 37 36 35 34 33 34 36 38
26 29 31 34 35 37 36 37 40 42 42 42 46 46 47 48 51 54 55 59 58 57 57 60 55 58 55 50 46 41 38 42 45 45 43 44 43 42 42 40 42 44 47
28 29 32 32 34 37 38 38 40 43 44 42 43 46 49 51 51 51 55 56 58 58 60 61 61 60 58 52 46 49 49 44 46 51 54 54 53 52 51 52 52 53 52
36 34 35 34 37 37 40 41 40 41 43 45 46 47 48 51 52 52 53 55 58 60 59 60 58 62 62 65 62 51 47 43 44 45 49 55 63 62 61 60 61 60 61
41 40 39 39 40 41 43 45 45 47 49 49 48 48 51 53 55 56 57 58 60 62 60 59 61 64 65 69 60 63 57 54 51 48 48 50 51 54 64 69 70 67 67
47 45 43 44 49 51 50 48 49 52 54 55 54 53 54 57 61 61 59 62 61 65 64 62 64 63 65 72 72 68 69 63 62 57 59 55 53 53 53 54 56 60 65
57 55 51 50 52 54 56 57 55 56 59 61 61 62 62 61 64 65 65 65 66 65 66 66 66 69 73 73 73 75 71 67 68 68 66 65 63 55 52 54 55 55 56
62 62 61 61 61 60 62 63 65 62 61 65 68 69 69 66 68 67 69 72 72 69 72 69 70 71 73 78 79 75 78 73 68 72 73 73 66 63 56 53 53 55 55
68 67 67 67 67 67 67 69 67 67 67 68 69 73 73 72 73 75 74 78 79 78 80 77 76 80 79 83 82 82 80 79 77 77 79 79 76 70 67 57 55 54 54
71 70 70 71 72 72 69 71 73 75 75 75 75 77 76 76 78 80 82 81 81 80 83 83 85 82 87 86 86 82 83 81 79 78 76 75 79 78 67 66 58 58 58
75 75 76 80 80 78 76 78 80 79 78 79 80 78 80 82 85 88 88 88 89 88 88 89 90 91 94 90 89 88 86 86 85 81 82 84 82 77 77 67 65 59 61
81 81 83 85 84 84 85 84 83 83 83 84 85 87 89 91 93 93 91 94 95 95 92 94 97 98 96 100 96 90 89 88 88 87 88 90 88 81 77 75 68 63 60
87 88 91 93 92 89 88 88 87 89 90 91 95 97 99 99 98 97 101 104 100 98 100 101 105 104 105 100 98 96 92 94 97 93 92 93 87 83 77 77 75 68 63
Wind_Direction
329 205 185 195 194 198 198 198 207 211 218 223 229 233 234 238 245 252 262 262 267 270 277 281 283 281 281 276 282 289 294 296 295 302 300 304 301 300 299 298 300 297 297
324 222 189 198 197 198 205 210 215 219 222 225 231 238 244 248 256 256 260 265 271 277 279 281 282 284 277 283 288 288 291 295 299 299 299 299 297 298 298 295 296 293 296
295 245 229 209 206 210 216 216 220 223 230 231 239 246 250 255 258 266 265 270 273 276 277 280 284 278 280 281 282 288 288 293 292 292 296 296 294 292 291 290 291 291 292
20 244 232 223 226 224 227 225 227 235 240 246 251 254 254 257 264 267 270 272 275 273 275 278 275 276 274 279 282 286 286 289 293 287 288 292 289 289 288 288 289 289 289
66 72 221 245 243 250 255 247 244 245 247 249 249 253 257 261 263 264 267 268 270 270 268 270 272 275 277 281 283 286 289 288 288 285 286 288 285 285 287 288 288 289 289
64 71 72 86 106 200 229 239 249 253 256 253 251 253 259 263 259 263 264 268 273 269 272 275 276 280 282 285 286 286 286 285 287 282 285 283 286 284 285 289 288 289 290
45 52 61 67 70 66 66 86 247 247 246 253 258 260 261 263 266 269 272 273 273 276 276 272 272 277 281 283 281 282 282 286 286 284 286 287 286 285 285 285 288 289 291
31 33 39 46 48 51 56 68 75 76 77 238 253 262 260 259 264 267 265 267 271 270 271 272 273 276 279 277 276 283 286 291 293 292 293 291 286 283 284 286 289 289 294
24 27 26 27 32 34 40 41 46 58 61 72 67 63 60 40 302 279 277 276 272 274 278 280 283 285 285 286 287 294 298 297 298 302 307 309 307 305 307 304 305 308 306
14 18 19 20 22 24 25 26 33 40 40 42 42 46 41 39 31 27 21 6 347 330 325 322 317 313 310 309 307 306 309 316 318 320 325 330 333 337 341 334 325 317 313
2 6 11 12 13 15 18 14 16 19 23 22 26 28 30 26 27 28 25 21 11 355 353 343 336 328 320 316 315 311 314 318 319 322 327 331 331 328 323 321 319 317 317
353 354 2 2 4 7 6 7 8 10 10 12 13 14 14 17 17 15 17 16 12 9 4 357 351 353 340 329 324 322 321 321 323 327 329 328 324 320 316 313 312 311 307
345 346 348 350 354 356 356 356 359 1 2 359 1 2 2 3 7 6 8 5 5 9 6 4 359 354 348 340 325 316 314 316 319 321 321 321 316 314 309 308 303 299 296
331 334 338 337 338 343 344 347 347 347 350 351 351 350 352 355 353 356 359 358 360 358 0 1 357 350 345 342 335 322 305 301 298 299 301 302 302 301 301 298 298 297 296
318 320 324 328 330 333 335 336 336 337 339 340 341 344 343 345 345 345 347 350 352 353 352 351 351 349 339 336 335 327 319 300 291 289 287 288 288 289 290 289 288 290 292
311 314 313 317 320 322 324 327 327 328 329 330 332 333 333 334 336 338 337 337 340 341 346 346 345 344 345 339 334 332 331 317 300 293 287 285 284 287 287 286 287 287 290
301 303 304 308 310 313 314 314 314 315 318 321 323 324 326 326 326 324 328 329 332 335 336 337 338 340 338 337 337 331 326 323 316 302 295 291 285 285 284 284 285 287 289
293 297 302 304 304 307 306 306 307 309 311 313 315 315 317 319 321 319 320 322 324 326 328 331 332 332 333 333 334 335 322 329 324 315 306 297 291 288 286 287 291 290 291
293 292 296 299 300 302 302 302 304 303 303 306 308 310 314 314 314 316 318 316 315 319 323 324 324 327 328 330 329 328 329 322 325 318 318 311 300 296 290 289 289 288 287
295 294 293 293 294 296 297 299 297 300 300 302 304 306 309 309 311 309 313 315 313 311 315 319 319 322 326 327 326 328 324 322 321 322 318 314 315 300 291 290 289 286 285
289 291 292 291 291 292 293 297 298 297 298 300 300 303 306 306 307 306 308 311 310 307 312 313 314 315 319 322 321 319 321 320 317 318 318 316 310 310 298 289 288 288 285
284 284 285 286 288 289 291 295 294 293 293 297 298 299 302 302 302 304 307 307 306 309 308 311 311 313 315 316 316 315 313 313 312 312 313 313 312 305 304 291 286 285 284
281 282 283 285 286 289 289 290 289 291 292 294 295 296 297 297 299 301 301 303 304 304 305 305 308 308 310 311 312 310 311 314 310 308 308 309 308 305 299 297 286 283 281
277 277 278 286 291 292 291 288 287 289 290 291 294 293 294 295 296 298 299 301 302 302 301 302 305 306 309 309 307 307 305 306 307 303 304 305 306 301 298 292 290 281 279
275 277 279 286 288 289 289 286 285 287 289 289 289 291 291 292 294 294 296 299 299 299 300 302 303 304 303 304 304 303 300 300 302 303 301 304 302 300 294 291 286 283 276
272 276 279 282 285 284 283 280 281 282 283 286 289 289 290 290 292 293 294 295 297 297 299 299 300 300 302 299 300 300 299 296 301 302 302 302 300 297 293 288 284 280 278
Height
10479 10483 10487 10494 10502 10511 10522 10533 10543 10551 10558 10565 10571 10575 10581 10584 10587 10589 10589 10590 10590 10589 10590 10588 10587 10583 10581 10579 10578 10574 10569 10565 10562 10557 10552 10546 10543 10539 10532 10524 10519 10512 10506
10484 10488 10494 10500 10507 10516 10524 10533 10542 10548 10556 10560 10565 10570 10574 10577 10580 10581 10582 10581 10579 10579 10578 10577 10575 10572 10569 10567 10563 10559 10555 10550 10545 10540 10536 10530 10524 10521 10516 10511 10504 10498 10493
10493 10495 10500 10504 10511 10517 10522 10531 10539 10545 10551 10556 10559 10562 10566 10568 10570 10571 10571 10569 10568 10567 10566 10563 10560 10559 10556 10553 10549 10545 10541 10537 10532 10528 10523 10517 10511 10509 10507 10499 10494 10488 10485
10500 10501 10505 10510 10516 10521 10526 10533 10539 10543 10547 10551 10553 10556 10558 10560 10560 10560 10559 10558 10555 10554 10553 10552 10548 10546 10543 10540 10536 10532 10528 10523 10519 10514 10509 10503 10499 10494 10491 10487 10482 10476 10470
10508 10507 10509 10514 10517 10521 10524 10529 10533 10538 10542 10545 10546 10548 10549 10549 10549 10548 10548 10546 10543 10541 10538 10537 10535 10533 10530 10526 10522 10517 10512 10505 10501 10497 10493 10489 10485 10481 10475 10468 10462 10454 10450
10526 10521 10517 10515 10513 10513 10514 10518 10522 10526 10529 10533 10535 10537 10538 10539 10539 10537 10537 10535 10532 10529 10529 10526 10523 10519 10514 10510 10505 10501 10496 10490 10487 10484 10480 10474 10466 10460 10451 10447 10440 10435 10432
10531 10527 10523 10520 10518 10517 10514 10512 10512 10513 10516 10518 10519 10522 10523 10523 10524 10522 10521 10521 10519 10518 10515 10513 10510 10506 10502 10496 10492 10487 10485 10477 10469 10463 10459 10451 10442 10438 10434 10428 10425 10421 10419
10535 10531 10528 10525 10522 10520 10516 10514 10512 10510 10509 10508 10509 10510 10512 10512 10512 10510 10509 10507 10506 10504 10502 10498 10495 10491 10485 10481 10478 10471 10465 10458 10453 10448 10441 10436 10429 10424 10419 10415 10412 10409 10406
10540 10536 10533 10528 10526 10522 10518 10517 10513 10509 10508 10506 10506 10506 10504 10502 10500 10498 10495 10493 10492 10490 10487 10483 10478 10475 10470 10465 10462 10459 10454 10449 10444 10438 10432 10426 10420 10414 10410 10407 10404 10403 10402
10539 10536 10533 10531 10528 10523 10518 10517 10515 10511 10509 10507 10504 10502 10499 10497 10494 10492 10489 10487 10484 10481 10477 10473 10469 10465 10461 10457 10453 10448 10444 10440 10436 10431 10425 10420 10415 10411 10407 10405 10403 10402 10401
10538 10534 10529 10527 10525 10524 10520 10517 10513 10510 10508 10505 10502 10499 10496 10495 10491 10488 10484 10480 10478 10474 10469 10465 10461 10456 10453 10449 10445 10440 10436 10433 10429 10424 10419 10415 10412 10409 10406 10404 10402 10399 10397
10536 10533 10531 10526 10523 10520 10517 10516 10514 10509 10506 10502 10499 10494 10491 10488 10485 10481 10477 10474 10470 10466 10462 10457 10453 10449 10443 10439 10435 10432 10428 10424 10420 10416 10413 10410 10408 10405 10403 10400 10397 10395 10393
10532 10530 10526 10523 10521 10518 10515 10511 10508 10506 10504 10501 10497 10493 10488 10484 10481 10477 10474 10470 10465 10459 10452 10448 10445 10442 10437 10432 10427 10423 10419 10417 10413 10410 10408 10406 10404 10402 10398 10395 10392 10390 10388
10527 10525 10524 10521 10518 10515 10511 10508 10506 10503 10500 10496 10491 10487 10483 10478 10475 10472 10468 10464 10459 10454 10449 10444 10438 10432 10428 10425 10421 10416 10413 10409 10407 10404 10403 10400 10398 10396 10393 10389 10386 10383 10379
10522 10519 10518 10516 10513 10509 10506 10503 10499 10496 10494 10490 10485 10482 10477 10473 10470 10466 10462 10459 10455 10450 10444 10439 10434 10430 10422 10416 10410 10406 10403 10400 10398 10395 10392 10390 10388 10385 10382 10380 10376 10372 10368
10514 10512 10510 10509 10506 10504 10500 10496 10492 10488 10486 10483 10480 10476 10471 10467 10462 10457 10453 10449 10445 10441 10437 10432 10425 10419 10414 10409 10405 10399 10396 10390 10387 10383 10380 10378 10374 10372 10370 10367 10364 10360 10356
10505 10502 10500 10499 10497 10495 10492 10489 10485 10481 10477 10475 10471 10467 10463 10460 10455 10450 10445 10440 10436 10432 10428 10423 10419 10414 10407 10403 10398 10393 10388 10382 10376 10371 10367 10363 10361 10358 10356 10353 10350 10347 10344
10492 10491 10489 10487 10485 10484 10482 10478 10474 10471 10467 10464 10461 10458 10454 10451 10446 10441 10437 10432 10427 10422 10418 10414 10409 10404 10399 10394 10389 10384 10379 10373 10367 10361 10354 10349 10345 10341 10339 10335 10334 10332 10329
10479 10478 10476 10473 10471 10469 10468 10466 10462 10458 10454 10450 10447 10445 10443 10438 10433 10429 10425 10420 10414 10409 10406 10403 10399 10394 10389 10383 10377 10372 10367 10360 10355 10350 10344 10338 10331 10327 10323 10318 10315 10314 10312
10462 10461 10460 10459 10457 10455 10452 10449 10447 10444 10438 10434 10431 10429 10427 10424 10418 10413 10410 10406 10401 10397 10393 10388 10383 10379 10374 10370 10364 10359 10352 10347 10340 10334 10329 10323 10319 10314 10308 10304 10300 10296 10294
10445 10442 10441 10440 10439 10437 10435 10433 10430 10427 10423 10418 10413 10411 10409 10407 10401 10398 10394 10390 10386 10381 10377 10373 10369 10364 10359 10354 10350 10345 10338 10333 10326 10320 10314 10307 10302 10299 10293 10289 10284 10281 10277
10429 10426 10424 10421 10419 10418 10415 10413 10411 10409 10406 10402 10397 10393 10390 10386 10383 10379 10375 10370 10366 10363 10358 10355 10351 10346 10342 10337 10332 10328 10321 10316 10310 10304 10297 10291 10284 10279 10275 10270 10267 10264 10261
10409 10407 10404 10402 10401 10400 10397 10394 10392 10389 10385 10382 10378 10374 10371 10368 10364 10361 10358 10353 10348 10344 10339 10336 10333 10327 10322 10318 10314 10307 10302 10296 10291 10286 10280 10273 10266 10259 10255 10252 10247 10245 10242
10387 10385 10383 10381 10379 10377 10375 10373 10370 10367 10363 10360 10357 10353 10351 10347 10344 10340 10336 10332 10329 10324 10318 10314 10311 10308 10302 10297 10292 10287 10280 10275 10270 10264 10260 10254 10247 10239 10233 10230 10227 10223 10221
10364 10362 10360 10359 10357 10354 10352 10349 10345 10343 10341 10337 10333 10330 10328 10325 10321 10317 10313 10309 10305 10303 10297 10292 10287 10282 10279 10275 10270 10264 10257 10253 10248 10242 10236 10230 10222 10217 10211 10207 10204 10202 10200
10339 10338 10336 10334 10333 10331 10329 10326 10323 10319 10316 10312 10309 10306 10302 10298 10295 10292 10288 10285 10280 10276 10273 10269 10264 10259 10255 10249 10243 10239 10233 10225 10220 10214 10210 10204 10198 10189 10184 10181 10178 10179 10177